User: anonymous   Login
Location: Cabeza de los Veneras
(40.2000°N, 5.2000°W)
Time: 13:23:41
(UTC+00:00)
Language:

IRS-1C Rocket - Orbit

View from above orbital plane
View from above orbital plane
View from above satellite
View from above satellite

Ground track
Ground track

The orbit data is extracted from the following two-line orbital elements,

1 23753U 95072C   24167.88151943  .00000130  00000-0  72468-4 0  9997
2 23753  98.7998 227.2852 0004658  66.9304 293.2366 14.26754826481628
Epoch (UTC): 15 June 2024 21:09:23
Eccentricity: 0.0004658
inclination: 98.7998°
perigee height: 799 km
apogee height: 806 km
right ascension of ascending node: 227.2852°
argument of perigee: 66.9304°
revolutions per day: 14.26754826
mean anomaly at epoch: 293.2366°
orbit number at epoch: 48162

The dashed part of the orbit path shows where the satellite is in the earth's shadow,  

DLR